Tracking 29932 objects as of 3-Dec-2024
HD Live streaming from Space Station
objects crossing your sky now

IRIDIUM 33 DEB

Track IRIDIUM 33 DEB now!
10-day predictions


NORAD ID: 34366
Int'l Code: 1997-051FJ
Perigee: 720.7 km
Apogee: 752.1 km
Inclination: 86.4 °
Period: 99.4 minutes
Semi major axis: 7107 km
RCS: 0.0424 m2 (small)
Launch date: September 14, 1997
Source: United States (US)
Launch site: TYURATAM MISSILE AND SPACE COMPLEX (TTMTR)

Note: This is SATELLITE DEBRIS
Your satellite tracking list
Your tracking list is empty




NASA's NSSDC Master Catalog

Two Line Element Set (TLE):
1 34366U 97051FJ  24337.09441539  .00011183  00000-0  29399-2 0  9996
2 34366  86.3735 211.9157 0022075 327.3071 201.9759 14.48895711827324
Source of the keplerian elements: AFSPC